Hourly Data Report for February 28, 2002

SHERBROOKE A
QUEBEC

45°26'00.000" N
71°41'00.000" W
241.40 m
7028124
71610
YSC

Download Data

Hourly Data (February 2002)
Hourly Data Report for February 28, 2002
TIME
LST
Temp Definition
°C
Dew Point Definition
°C
Rel Hum Definition
%
Precip. Amount Definition
mm

Wind Dir Definition
10's deg

Wind Spd Definition
km/h
Visibility Definition
km
Stn Press Definition
kPa
Hmdx Definition


Wind Chill Definition


Weather Definition


00:00 -3.9 -5.3 90   25 15 2.6 96.47   -9 Snow
01:00 -4.1 -5.2 92   25 15 1.4 96.46   -9 Snow
02:00 -4.4 -6.1 88   28 22 6.4 96.45   -11 Snow
03:00 -6.6 -9.3 81   28 30 15.0 96.51   -15  
04:00 -8.1 -10.7 82   28 17 15.0 96.62   -15  
05:00 -9.2 -10.9 87   28 28 1.4 96.75   -18 Snow
06:00 -10.4 -12.7 83   27 22 4.8 96.90   -19 Snow
07:00 -10.2 -12.0 87   26 28 1.1 97.00   -19 Snow
08:00 -10.7 -13.6 79   26 32 3.2 97.15   -21 Snow Showers,Blowing Snow
09:00 -10.7 -13.2 82   26 32 2.0 97.30   -21 Snow Showers
10:00 -10.3 -13.1 80   25 28 2.4 97.43   -20 Snow Showers,Blowing Snow
11:00 -9.8 -13.0 77   24 30 9.7 97.54   -19 Snow Showers
12:00 -8.6 -13.3 69   26 35 24.1 97.67   -18 Mainly Clear
13:00 -7.7 -12.9 66   25 39 24.1 97.79   -18 Mainly Clear
14:00 -6.7 -13.3 59   26 30 24.1 97.92   -15 Mainly Clear
15:00 -6.2 -12.4 61   27 32 24.1 98.02   -15 Mainly Clear
16:00 -5.7 -12.8 57   25 26 24.1 98.17   -13 Mainly Clear
17:00 -6.1 -12.7 60   26 26 24.1 98.28   -14 Clear
18:00 -6.6 -13.0 60   25 17 15.0 98.40   -13  
19:00 -6.9 -13.2 61   25 15 15.0 98.52   -13  
20:00 -8.1 -13.1 67   20 6 15.0 98.59   -11  
21:00 -13.1 -14.6 88   16 7 15.0 98.66   -18  
22:00 -8.9 -13.3 70   20 9 15.0 98.78   -14  
23:00 -7.8 -13.3 65   21 7 15.0 98.86   -11  

Notes on Data Quality.

Legend

  • E = Estimated
  • M = Missing
  • NA = Not Available*
  • [empty] = Indicates an unobserved value
Date modified: